[[{"header":{"parameterUnit":"m.s-1","parameterCategory":1,"la1":30.2991,"la2":30.254,"lo1":-89.0895,"lo2":-89.0444,"dy":0.0017,"dx":0.0017,"nx":28,"ny":28,"refTime":"2025-04-28T09:00:00:Z","depth":0,"parameterNumber":2,"parameterNumberName":"U-component_of_WINDS"},"data":[0,0,0,0,0,0,0,0,0,0,0,0,0,0,0,0,0,0,0,0,0,0,0,0,0,0,0,0,0,0,0,0,0,0,0,0,0,0,0,0,0,0,0,0,0,0,0,0,0,0,0,0,0,0,0,0,0,0,-0.4676,-0.4676,0,-0.4637,-0.4637,-0.4636,-0.4619,-0.4619,-0.4619,-0.462,-0.4577,-0.4576,-0.4575,0,0,0,0,0,0,0,0,0,0,0,0,0,-0.4735,-0.4734,-0.4676,-0.4676,-0.4675,-0.4637,-0.4637,-0.4636,-0.4619,-0.4619,-0.4619,-0.462,-0.4578,-0.4576,-0.4575,0,0,0,0,0,0,0,0,0,0,0,0,0,-0.4704,-0.4733,-0.4676,-0.4662,-0.4661,-0.4637,-0.4637,-0.4636,-0.4619,-0.4619,-0.462,-0.462,-0.4578,-0.4577,-0.4575,-0.4562,0,0,-0.4569,-0.4569,0,0,0,0,0,0,0,0,-0.4706,-0.4702,-0.4665,-0.4663,-0.4661,-0.4633,-0.4642,-0.4611,-0.4619,-0.4635,-0.462,-0.462,-0.4596,-0.4593,-0.4585,-0.456,-0.4558,-0.4569,-0.4568,-0.4567,-0.4567,0,0,0,0,0,0,0,-0.4708,-0.4703,-0.4661,-0.4664,-0.4662,-0.4658,-0.4653,-0.4636,-0.4615,-0.4634,-0.4632,-0.4628,-0.4595,-0.4587,-0.4584,-0.4557,-0.4569,-0.4568,-0.4567,-0.4566,-0.4521,-0.4521,0,0,0,0,0,0,-0.4712,-0.4705,-0.4662,-0.4659,-0.4684,-0.4656,-0.4652,-0.4642,-0.4615,-0.4611,-0.4628,-0.4627,-0.459,-0.4586,-0.4582,-0.4566,-0.4567,-0.4566,-0.4565,-0.4522,-0.4521,-0.4521,0,0,0,0,0,0,-0.4714,-0.4709,-0.4663,-0.4682,-0.4676,-0.4655,-0.4645,-0.4641,-0.4633,-0.4611,-0.4607,-0.4624,-0.459,-0.4585,-0.4568,-0.4565,-0.4565,-0.4563,-0.4522,-0.4521,-0.4521,-0.4534,0,0,0,0,0,0,-0.4716,-0.4709,-0.4704,-0.4682,-0.4675,-0.465,-0.4645,-0.464,-0.463,-0.4629,-0.4606,-0.4602,-0.4589,-0.457,-0.4566,-0.4562,-0.4562,-0.4522,-0.4522,-0.4521,-0.4534,-0.4534,-0.4535,0,0,0,0,0,-0.4718,-0.4708,-0.4704,-0.4699,-0.4668,-0.4649,-0.4645,-0.4631,-0.463,-0.4625,-0.4611,-0.4603,-0.4566,-0.4569,-0.4564,-0.4559,-0.4522,-0.4522,-0.4521,-0.4533,-0.4534,-0.4535,0,0,0,0,0,0,-0.473,-0.4705,-0.47,-0.4683,-0.4669,-0.4647,-0.4639,-0.4632,-0.4617,-0.4616,-0.4599,-0.4594,-0.4579,-0.4567,-0.4571,-0.4546,-0.4543,-0.4542,-0.4554,-0.4555,-0.4555,-0.4558,-0.456,0,0,0,0,0,-0.4731,-0.4718,-0.4697,-0.4684,-0.4677,-0.466,-0.4651,-0.4642,-0.4626,-0.4619,-0.4604,-0.4588,-0.4573,-0.4563,-0.4548,-0.4532,-0.4527,-0.4527,-0.4527,-0.4528,-0.4527,-0.4519,-0.4519,-0.452,-0.452,-0.452,0,0,-0.4732,-0.4717,-0.471,-0.4686,-0.4674,-0.4661,-0.4655,-0.4641,-0.4631,-0.4617,-0.46,-0.4588,-0.457,-0.4554,-0.4546,-0.4543,-0.4525,-0.4527,-0.4528,-0.4527,-0.4518,-0.4518,-0.4518,-0.452,-0.452,-0.452,0,0,-0.4728,-0.4715,-0.4704,-0.4692,-0.4674,-0.4663,-0.466,-0.4639,-0.4631,-0.4615,-0.4604,-0.4592,-0.4566,-0.4554,-0.4544,-0.4537,-0.4529,-0.4533,-0.4535,-0.4527,-0.4527,-0.4527,-0.4525,-0.4525,-0.4532,-0.4532,-0.4532,0,-0.4731,-0.4712,-0.4699,-0.4686,-0.4676,-0.4664,-0.4653,-0.4642,-0.4619,-0.4613,-0.4611,-0.458,-0.4566,-0.4547,-0.4546,-0.4538,-0.4535,-0.4535,-0.4529,-0.4528,-0.4528,-0.4526,-0.4525,-0.4532,-0.4532,-0.4532,-0.4532,0,-0.4718,-0.4705,-0.4698,-0.4678,-0.4667,-0.4655,-0.464,-0.4631,-0.4624,-0.4613,-0.4596,-0.458,-0.4562,-0.4557,-0.4548,-0.4537,-0.4537,-0.4532,-0.4529,-0.4528,-0.4527,-0.4526,-0.4533,-0.4533,-0.4533,-0.4533,0,0,-0.4719,-0.4693,-0.4691,-0.4682,-0.4662,-0.4652,-0.464,-0.4623,-0.4616,-0.4601,-0.4591,-0.457,-0.4566,-0.4555,-0.4546,-0.4539,-0.4536,-0.4535,-0.4534,-0.4536,-0.4524,-0.4528,-0.4527,-0.4531,-0.4531,-0.4531,-0.4526,0,-0.4712,-0.4691,-0.4679,-0.4662,-0.465,-0.464,-0.4629,-0.4616,-0.4606,-0.4594,-0.4582,-0.4569,-0.4564,-0.4558,-0.4551,-0.4538,-0.4533,-0.4538,-0.4521,-0.4521,-0.4526,-0.4526,-0.4529,-0.4525,-0.4525,-0.4525,-0.4524,0,-0.4701,-0.4688,-0.4671,-0.4654,-0.4648,-0.4639,-0.4624,-0.4613,-0.4598,-0.4591,-0.458,-0.457,-0.4558,-0.4556,-0.4538,-0.4542,-0.4534,-0.4527,-0.4526,-0.4524,-0.4522,-0.4524,-0.4524,-0.4523,-0.4523,-0.4523,-0.4523,0,-0.4705,-0.4682,-0.4669,-0.4662,-0.4642,-0.4636,-0.4627,-0.4612,-0.4604,-0.459,-0.4584,-0.4569,-0.4561,-0.4549,-0.4537,-0.4536,-0.452,-0.4517,-0.4514,-0.4515,-0.4511,-0.4511,-0.451,-0.4506,-0.4506,-0.4506,-0.4506,0,-0.4698,-0.4688,-0.4671,-0.4663,-0.4651,-0.4639,-0.4628,-0.4618,-0.4605,-0.4595,-0.4585,-0.4575,-0.4559,-0.4548,-0.4537,-0.4525,-0.4521,-0.4515,-0.4512,-0.4516,-0.4517,-0.4511,-0.4511,-0.4506,-0.4506,-0.4506,-0.4506,0,-0.4699,-0.4688,-0.4673,-0.4656,-0.4651,-0.4643,-0.4628,-0.462,-0.461,-0.4598,-0.4594,-0.4578,-0.4565,-0.4551,-0.4532,-0.4526,-0.4513,-0.451,-0.4519,-0.4517,-0.4515,-0.4516,-0.451,-0.4509,-0.4506,-0.4506,-0.4506,0,-0.4696,-0.4688,-0.4671,-0.4664,-0.4656,-0.4644,-0.4636,-0.4624,-0.4615,-0.4599,-0.4593,-0.4579,-0.4567,-0.4546,-0.4532,-0.4518,-0.4514,-0.4513,-0.4512,-0.4516,-0.4515,-0.4516,-0.4515,-0.4514,-0.4514,-0.4514,-0.4514,0,-0.4692,-0.4687,-0.4676,-0.4663,-0.4654,-0.4643,-0.4631,-0.4626,-0.4611,-0.4603,-0.4589,-0.458,-0.4563,-0.4549,-0.4534,-0.4524,-0.4517,-0.4515,-0.4513,-0.4517,-0.4523,-0.452,-0.452,-0.4515,-0.4515,-0.4515,-0.4514,-0.4514,-0.4691,-0.4684,-0.4671,-0.4659,-0.465,-0.464,-0.4632,-0.4622,-0.4611,-0.4596,-0.459,-0.4576,-0.4563,-0.4542,-0.4533,-0.4522,-0.452,-0.4518,-0.4518,-0.4517,-0.4519,-0.4525,-0.452,-0.452,-0.4519,-0.4519,-0.4519,0,-0.4687,-0.4678,-0.4668,-0.4653,-0.4644,-0.4639,-0.4627,-0.462,-0.4609,-0.4597,-0.4586,-0.4572,-0.4559,-0.4545,-0.4532,-0.4526,-0.4523,-0.4523,-0.4523,-0.4521,-0.4521,-0.4524,-0.4526,-0.4526,-0.4526,-0.4526,-0.4526,-0.4526,-0.4683,-0.4672,-0.4666,-0.465,-0.4641,-0.4629,-0.4623,-0.4614,-0.4605,-0.459,-0.4579,-0.4571,-0.4559,-0.4545,-0.4533,-0.453,-0.4525,-0.4527,-0.4522,-0.4522,-0.4521,-0.4521,-0.4523,-0.4526,-0.4526,-0.4524,-0.4524,-0.4524]},{"header":{"parameterUnit":"m.s-1","parameterCategory":1,"la1":30.2991,"la2":30.254,"lo1":-89.0895,"lo2":-89.0444,"dy":0.0017,"dx":0.0017,"nx":28,"ny":28,"refTime":"2025-04-28T09:00:00:Z","depth":0,"parameterNumber":3,"parameterNumberName":"V-component_of_WINDS"},"data":[0,0,0,0,0,0,0,0,0,0,0,0,0,0,0,0,0,0,0,0,0,0,0,0,0,0,0,0,0,0,0,0,0,0,0,0,0,0,0,0,0,0,0,0,0,0,0,0,0,0,0,0,0,0,0,0,0,0,2.5907,2.5907,0,2.5867,2.5866,2.5866,2.5856,2.5856,2.5857,2.5857,2.581,2.5809,2.5807,0,0,0,0,0,0,0,0,0,0,0,0,0,2.5972,2.5971,2.5907,2.5907,2.5906,2.5867,2.5866,2.5866,2.5856,2.5856,2.5857,2.5857,2.5811,2.5809,2.5807,0,0,0,0,0,0,0,0,0,0,0,0,0,2.5939,2.5971,2.5908,2.5897,2.5896,2.5867,2.5866,2.5866,2.5856,2.5856,2.5857,2.5857,2.5812,2.5809,2.5807,2.5785,0,0,2.58,2.5799,0,0,0,0,0,0,0,0,2.5941,2.5937,2.5899,2.5898,2.5896,2.5867,2.5872,2.5838,2.5856,2.5871,2.5857,2.5858,2.5829,2.5825,2.5816,2.5782,2.578,2.58,2.5799,2.5798,2.5797,0,0,0,0,0,0,0,2.5943,2.5938,2.5891,2.5899,2.5897,2.5893,2.5889,2.5866,2.5848,2.587,2.5869,2.5864,2.5828,2.5818,2.5815,2.578,2.58,2.5798,2.5797,2.5796,2.5724,2.5724,0,0,0,0,0,0,2.5948,2.594,2.5893,2.589,2.592,2.5891,2.5887,2.5876,2.5848,2.5844,2.5864,2.5864,2.5822,2.5818,2.5813,2.5785,2.5798,2.5796,2.5794,2.5725,2.5724,2.5724,0,0,0,0,0,0,2.5949,2.5944,2.5894,2.5915,2.5908,2.589,2.5878,2.5875,2.5866,2.5844,2.584,2.5858,2.5822,2.5817,2.5792,2.5783,2.5795,2.5792,2.5726,2.5725,2.5724,2.5727,0,0,0,0,0,0,2.5951,2.5944,2.5937,2.5915,2.5907,2.5875,2.5877,2.5874,2.5862,2.5862,2.5837,2.5833,2.5822,2.5795,2.579,2.578,2.5791,2.5726,2.5725,2.5724,2.5728,2.5727,2.5726,0,0,0,0,0,2.5954,2.5938,2.5936,2.5931,2.5898,2.5874,2.587,2.5859,2.5862,2.5853,2.5839,2.5834,2.5785,2.5793,2.5786,2.5776,2.5727,2.5725,2.5724,2.5728,2.5727,2.5726,0,0,0,0,0,0,2.5958,2.5935,2.5933,2.591,2.5895,2.5873,2.5862,2.5857,2.5839,2.5839,2.5825,2.5819,2.5795,2.5783,2.5792,2.5752,2.5756,2.5753,2.5761,2.576,2.5759,2.5762,2.5789,0,0,0,0,0,2.5956,2.5941,2.5922,2.5903,2.5896,2.588,2.587,2.5863,2.5845,2.5838,2.5822,2.5804,2.5784,2.5771,2.5752,2.5726,2.572,2.5716,2.5715,2.5714,2.5712,2.5697,2.5694,2.572,2.572,2.572,0,0,2.5953,2.5939,2.5929,2.5904,2.5891,2.5874,2.5875,2.5856,2.5843,2.5834,2.5811,2.5798,2.5777,2.5752,2.574,2.5741,2.5703,2.5712,2.5712,2.571,2.5695,2.5693,2.569,2.5719,2.5719,2.5719,0,0,2.5937,2.5926,2.5909,2.5896,2.5877,2.5867,2.5863,2.5842,2.5834,2.581,2.5803,2.5786,2.5753,2.5738,2.5726,2.5705,2.57,2.5699,2.5693,2.5679,2.5677,2.5675,2.5666,2.5664,2.5697,2.5697,2.5697,0,2.5935,2.591,2.5901,2.5883,2.5872,2.5865,2.5847,2.5835,2.581,2.5801,2.5803,2.5761,2.5746,2.5717,2.5712,2.5703,2.5697,2.5702,2.5678,2.5676,2.5674,2.5666,2.5663,2.5697,2.5697,2.5697,2.5697,0,2.5908,2.5891,2.588,2.5858,2.5845,2.5827,2.5813,2.5801,2.5795,2.5784,2.576,2.5742,2.5719,2.5711,2.5704,2.5681,2.5682,2.5681,2.5684,2.5672,2.5664,2.5661,2.5697,2.5697,2.5697,2.5697,0,0,2.5893,2.5867,2.5863,2.5852,2.5831,2.5817,2.5798,2.5777,2.5767,2.575,2.5733,2.5705,2.5705,2.5691,2.5682,2.567,2.5653,2.567,2.5669,2.5667,2.5625,2.5626,2.5622,2.565,2.565,2.5649,2.5627,0,2.5875,2.5844,2.5835,2.5808,2.5791,2.5785,2.5768,2.5753,2.5742,2.5725,2.5712,2.5693,2.5694,2.5685,2.5673,2.5658,2.5645,2.566,2.5633,2.5632,2.5638,2.5618,2.5619,2.5599,2.5624,2.5623,2.5623,0,2.5849,2.5833,2.5805,2.5786,2.5779,2.5764,2.5744,2.5729,2.571,2.5703,2.5689,2.5681,2.566,2.5665,2.5635,2.5646,2.5634,2.5625,2.5624,2.562,2.5626,2.5613,2.5592,2.5589,2.5618,2.5618,2.5619,0,2.584,2.5812,2.5791,2.5783,2.576,2.575,2.574,2.5722,2.571,2.5691,2.5683,2.5662,2.565,2.5634,2.562,2.5625,2.5591,2.5595,2.5583,2.5584,2.5576,2.5576,2.5552,2.557,2.557,2.557,2.557,0,2.582,2.5803,2.5787,2.5775,2.5755,2.5744,2.5724,2.5713,2.5697,2.5681,2.5674,2.5658,2.5642,2.5624,2.5613,2.559,2.5584,2.5577,2.5574,2.5577,2.5578,2.5569,2.5569,2.5569,2.5569,2.5569,2.557,0,2.5807,2.5796,2.5773,2.5754,2.5748,2.5735,2.5717,2.5704,2.5693,2.5673,2.5667,2.565,2.5628,2.5614,2.5585,2.5578,2.5552,2.555,2.5559,2.5558,2.5546,2.5547,2.5514,2.5509,2.5531,2.5531,2.5531,0,2.5795,2.5782,2.5761,2.5751,2.5741,2.5724,2.5712,2.5701,2.5688,2.5666,2.5655,2.5633,2.5615,2.5581,2.5565,2.5543,2.554,2.5529,2.5536,2.554,2.5538,2.5539,2.5537,2.5528,2.5528,2.5528,2.5528,0,2.5774,2.5769,2.5753,2.5735,2.5722,2.5706,2.5691,2.5682,2.5668,2.5654,2.5633,2.5619,2.5591,2.5569,2.5546,2.5533,2.5527,2.5526,2.5522,2.5525,2.553,2.5526,2.5555,2.5526,2.5527,2.5527,2.5527,2.5527,2.576,2.5748,2.5732,2.5714,2.5702,2.5688,2.5674,2.5663,2.5645,2.5623,2.5617,2.5594,2.5575,2.5544,2.5531,2.5512,2.5513,2.5507,2.5506,2.5504,2.5504,2.5534,2.5508,2.5508,2.5508,2.5508,2.5508,0,2.5738,2.5728,2.5712,2.5691,2.5677,2.5675,2.5657,2.5645,2.5626,2.561,2.5593,2.5568,2.5547,2.5529,2.5507,2.5495,2.5492,2.549,2.549,2.5487,2.5505,2.551,2.5493,2.5493,2.5493,2.5493,2.5493,2.5493,2.5725,2.5704,2.5698,2.5671,2.566,2.5639,2.563,2.5616,2.5603,2.5576,2.5559,2.5549,2.5531,2.5508,2.5488,2.5483,2.5474,2.5473,2.5467,2.5484,2.5486,2.5487,2.5492,2.5471,2.5471,2.5451,2.545,2.545]}]]